User: anonymous   Login
Location: Oshawa
(43.9000°N, 78.8670°W)
Time: 03:09:58
(UTC-05:00)
Language:

Cosmos 1500 - Orbit

View from above orbital plane
View from above orbital plane
View from above satellite
View from above satellite

Ground track
Ground track

The orbit data is extracted from the following two-line orbital elements,

1 14372U 83099A   17054.18480424  .00000956  00000-0  46307-4 0  9998
2 14372  82.5135  96.2311 0017168 119.3243 301.9549 15.17216229820514
Epoch (UTC): 23 February 2017 04:26:07
Eccentricity: 0.0017168
inclination: 82.5135°
perigee height: 502 km
apogee height: 526 km
right ascension of ascending node: 96.2311°
argument of perigee: 119.3243°
revolutions per day: 15.17216229
mean anomaly at epoch: 301.9549°
orbit number at epoch: 82051

The dashed part of the orbit path shows where the satellite is in the earth's shadow,  

DLR